CAPE
0 18 33 18 32 45 96 39 195 764 585 742 159 160 311 276 356 210 87 47 53 1 0 0 61 213 277 459 552 326 771 601 912 826 713 982 1017 624 532 1027 1037 1385 1495 1598
2 5 42 36 38 42 130 134 306 738 410 227 80 232 205 335 450 274 204 68 74 174 41 86 20 232 352 342 449 330 1115 956 861 581 474 1005 982 854 843 1031 1883 1892 1980 2038
0 18 29 50 39 98 147 17 145 256 334 223 237 61 351 540 551 461 237 190 89 159 183 169 229 219 339 345 387 824 1262 1236 1273 1209 1160 1612 1086 1023 742 1878 1986 1725 2008 2174
31 7 83 162 102 37 11 0 0 163 52 199 173 215 114 472 509 530 572 225 233 152 176 227 288 273 336 382 424 804 1478 1106 777 1301 1923 1209 806 944 911 848 1044 1874 2274 1676
0 0 18 187 15 14 0 0 0 0 0 56 145 149 123 190 528 441 374 259 181 209 168 245 301 376 350 478 625 653 1752 1365 1117 1399 1802 2275 1249 1290 1231 1528 2262 2413 1959 1627
0 0 0 0 0 0 0 0 0 0 19 66 97 54 134 127 57 280 488 442 241 155 244 327 350 367 484 666 873 889 1694 1490 1476 1515 1727 1912 1374 997 1420 2534 2271 2486 1990 1624
0 0 0 0 0 0 0 0 0 0 41 41 67 49 40 34 167 260 170 388 363 269 105 442 310 373 617 732 1116 1264 1313 1920 2194 1752 1936 2077 2074 1976 1653 2363 2273 2376 2375 1882
0 0 0 0 0 0 0 0 0 0 54 165 282 274 325 52 174 222 25 267 483 255 260 84 301 224 673 679 965 1491 1575 1572 1665 2680 2004 2215 2071 2686 2251 1641 2339 1868 1985 2058
0 0 0 0 0 0 0 0 0 1 253 273 222 156 83 113 181 17 14 232 399 329 450 104 102 274 600 730 850 1600 1815 1903 2167 1662 2725 2457 2126 2362 2289 1636 1667 1758 2296 2152
0 0 0 0 0 0 0 0 0 0 149 69 128 43 42 257 372 192 55 299 448 522 502 262 62 389 412 593 707 1775 1950 2194 2287 2306 2227 2818 2466 2427 2276 1751 1985 1683 2045 2616
0 0 0 0 0 0 0 0 0 0 71 85 44 45 277 177 324 719 630 130 131 762 543 704 348 72 271 430 409 1781 1947 2021 2096 2288 2390 2493 3040 2675 2359 2891 2593 2208 1576 2567
0 0 0 0 0 0 0 0 0 0 192 373 233 232 759 930 1215 1666 1039 1364 430 850 734 597 638 92 292 133 379 1494 1633 1901 2063 2041 2334 2459 2540 2927 2745 2382 2473 2954 2419 2779
18 8 0 0 0 0 0 0 0 0 132 491 635 258 371 400 1391 2316 2477 1846 1391 1649 1293 651 578 268 245 288 192 1038 1223 1563 1884 1863 2378 2355 2555 2712 2826 2744 2344 2254 2429 2122
0 0 0 8 0 0 1 0 0 0 21 950 518 99 11 56 1477 2413 3401 3123 2881 2841 2564 2389 1392 671 579 979 708 455 761 1445 1696 1968 2273 2398 2481 2588 2549 2596 2569 2180 2390 2528
4 0 0 10 0 0 31 4 3 19 5 89 383 194 20 1244 2095 2307 2576 2725 2561 2562 2455 2426 1372 1137 1611 1184 1893 1934 1795 1634 2210 2137 2143 2669 2586 2692 2689 2505 2408 2430 2242 2425
6 0 0 26 39 4 1 0 0 27 422 1329 1134 1034 1271 1892 2093 2090 2358 2058 1932 2057 2141 2081 2015 1789 1913 1932 1779 1659 1558 1630 2097 2159 2599 2559 2612 2710 2531 2388 2778 2609 2470 2531
0 0 0 11 47 38 37 186 120 95 815 1350 1174 914 854 988 1188 1477 1876 1895 1277 1049 1014 1464 1390 1734 1893 1905 1847 1658 1398 850 706 1134 1540 1770 2352 3153 3265 3122 2868 2954 2884 2931
0 0 0 0 13 14 25 30 69 75 122 890 1064 930 851 904 1034 1149 1491 1501 1441 1134 548 443 650 1174 1222 1188 1213 1104 878 398 69 66 375 1064 1403 2187 2557 2594 2475 2436 2284 2044
0 0 0 0 0 0 0 174 96 114 304 677 893 795 751 692 1098 1181 1184 1278 1032 765 366 386 383 357 344 532 719 728 591 508 136 91 250 532 1058 1546 1562 1667 1772 1764 1654 1778
0 0 0 0 3 0 298 155 90 57 373 390 443 677 639 625 1290 1285 1089 1000 959 780 515 500 412 430 260 198 220 189 106 122 0 131 114 60 567 655 1107 819 804 872 1022 710
106 0 0 0 0 196 323 306 121 13 532 497 467 514 450 476 725 918 646 752 806 781 811 739 712 546 386 460 435 358 246 326 210 97 31 217 1041 42 0 216 0 0 116 225
118 78 219 153 0 203 412 292 664 592 429 387 421 424 377 271 207 125 125 329 588 641 748 794 790 797 547 473 520 484 282 679 1161 1529 1236 1593 1157 624 22 844 0 0 33 103
61 96 108 206 400 236 220 203 294 332 331 247 154 152 335 55 12 185 183 148 203 318 457 456 577 637 625 655 698 453 197 347 345 432 1331 1724 1661 1468 1220 1458 1415 1118 815 737
274 150 10 56 246 224 76 42 22 2 16 0 0 0 0 0 0 307 277 264 566 613 648 690 1008 813 1023 883 804 822 880 1375 893 988 1929 1926 1723 1609 1243 1377 1359 1095 843 819
45 185 123 62 64 79 17 0 0 0 0 0 0 0 0 132 333 224 214 184 257 620 710 979 912 1140 1337 1226 1042 1270 1493 1343 1348 1567 1541 1486 1367 1040 1320 997 1000 950 966 712
0 0 0 0 107 379 92 2 0 0 0 0 4 0 240 382 294 159 83 452 673 857 974 1508 1213 1466 1551 1777 2014 1831 2229 1889 1229 751 674 181 56 505 545 674 433 913 736 868
CIN
-1 -226 -163 -168 -97 -82 -73 -74 -44 -96 -63 -207 -206 -260 -22 -15 -18 -21 -59 -90 -124 -23 0 -1 -169 -117 -151 -82 -98 -74 -69 -133 -103 -76 -27 -54 -30 -10 -20 -23 -116 -16 -16 -23
-66 -65 -151 -208 -235 -202 -92 -48 -95 -95 -221 -430 -121 -285 -40 -39 -5 -2 -5 -96 -120 -100 -185 -138 -215 -131 -139 -160 -118 -136 -90 -85 -118 -94 -102 -74 -22 -60 -59 -61 -24 -28 -45 -34
-11 -132 -135 -56 -136 -167 -99 -42 -52 -183 -164 -277 -246 -33 -41 -16 -13 -171 -26 -18 -123 -94 -121 -123 -99 -146 -161 -126 -174 -150 -98 -76 -65 -51 -75 -26 -16 -23 -24 -27 -45 -30 -26 -13
-44 -95 -121 -53 -86 -33 -1 0 0 -123 -66 -59 -59 -84 -192 -27 -20 -214 -153 -12 -22 -58 -79 -111 -102 -143 -100 -65 -182 -163 -148 -139 -110 -65 -24 -23 -20 -23 -20 -36 -53 -54 -29 -22
0 0 -97 -30 -85 -101 0 0 0 0 -9 -54 -253 -126 -305 -260 -19 -14 -17 -24 -45 -5 -68 -74 -78 -94 -115 -181 -170 -176 -133 -144 -98 -85 -45 -36 -48 -61 -36 -81 -63 -47 -20 -41
0 0 0 0 0 0 0 0 0 0 -111 -143 -204 -218 -255 -392 -199 -25 -19 -44 -75 -46 -38 -36 -47 -74 -174 -139 -152 -171 -130 -155 -122 -88 -56 -48 -52 -45 -44 -49 -65 -51 -74 -57
0 0 0 0 0 0 0 0 0 0 -32 -69 -127 -135 -14 -161 -308 -463 -28 -36 -80 -33 -18 -30 -30 -70 -141 -115 -118 -157 -182 -127 -124 -106 -85 -79 -76 -39 -45 -25 -31 -33 -60 -75
0 0 0 0 0 0 0 0 0 0 -85 -194 -197 -241 -260 -299 -193 -376 -543 -41 -70 -33 -36 -44 -19 -23 -70 -112 -105 -129 -170 -162 -134 -97 -110 -78 -77 -54 -42 -51 -27 -36 -55 -62
0 0 0 0 0 0 0 0 0 -28 -130 -179 -250 -446 -563 -247 -237 -522 -166 -27 -48 -35 -30 -54 -52 -14 -60 -105 -96 -120 -164 -153 -138 -137 -76 -92 -86 -68 -50 -75 -28 -51 -59 -22
0 0 0 0 0 0 0 0 0 0 -104 -62 -155 -454 -361 -25 0 -61 -4 -58 -64 -20 -27 -52 -107 -75 -58 -56 -67 -128 -156 -144 -130 -126 -124 -93 -90 -94 -74 -71 -101 -85 -52 -53
0 0 0 0 0 0 0 0 0 0 -164 -86 -267 -218 -190 -28 -66 -20 -29 -48 -184 -58 -38 -16 -40 -149 -95 -70 -97 -136 -140 -136 -130 -97 -121 -109 -83 -90 -83 -58 -93 -75 -78 -41
0 0 0 0 0 0 0 0 0 0 -38 -100 -112 -145 -148 -65 -38 -42 -32 -22 -44 -85 -35 -27 -37 -34 -99 -96 -79 -123 -119 -140 -136 -113 -136 -131 -112 -85 -78 -106 -90 -47 -74 -49
-143 -119 0 0 0 0 0 0 0 0 -46 -37 -40 -220 -49 -103 -52 -21 -32 -61 -54 -47 -84 -26 -26 -38 -73 -12 -32 -108 -121 -151 -146 -145 -162 -141 -132 -108 -105 -106 -124 -100 -76 -110
0 0 0 -12 0 0 -16 0 0 -9 -59 -59 -30 -36 -58 -191 -62 -19 -54 -58 -93 -125 -84 -213 -87 -317 -283 -253 -170 -221 -158 -170 -159 -147 -144 -145 -145 -139 -132 -122 -116 -133 -127 -102
-153 -11 0 -18 0 0 -19 -29 -17 -26 -28 -23 -72 -49 -87 -59 -63 -67 -69 -144 -147 -140 -80 -96 -140 -233 -137 -157 -30 -125 -175 -183 -170 -126 -131 -108 -148 -115 -95 -88 -73 -83 -97 -118
-79 0 0 -99 -66 -30 -6 0 -1 -1 -28 -102 -51 -74 -57 -48 -97 -90 -78 -124 -117 -57 -28 -62 -81 -82 -101 -83 -99 -93 -65 -57 -66 -45 -47 -71 -105 -59 -72 -87 -61 -51 -46 -65
0 0 0 -89 -64 -75 -24 -22 -14 -25 -56 -73 -71 -75 -59 -81 -94 -67 -59 -105 -145 -246 -95 -50 -42 -34 -34 -38 -52 -51 -56 -60 -22 -67 -102 -64 -17 -28 -33 -40 -38 -20 -23 -22
0 0 0 0 -56 -57 -65 -42 -16 -28 -45 -50 -69 -64 -56 -77 -115 -94 -101 -105 -110 -122 -171 -94 -43 -29 -39 -74 -51 -47 -70 -69 -277 -345 -296 -275 -165 -17 -32 -50 -77 -72 -83 -100
0 0 0 0 0 0 0 -93 -56 -30 -54 -56 -69 -85 -85 -83 -64 -79 -80 -91 -91 -135 -256 -174 -201 -215 -159 -27 -36 -44 -37 -39 -89 -508 -274 -299 -216 -115 -33 -37 -79 -78 -93 -97
0 0 0 0 -7 0 -46 -44 -69 -37 -66 -92 -100 -71 -62 -76 -49 -38 -52 -73 -72 -73 -97 -100 -158 -168 -197 -162 -169 -190 -510 -284 -3 -314 -470 -325 -311 -127 -43 -48 -55 -69 -67 -37
-73 0 0 0 0 -32 -39 -34 -23 -60 -92 -115 -176 -207 -111 -132 -107 -66 -64 -31 -17 -18 -11 -2 -3 -47 -220 -95 -108 -107 -398 -443 -483 -449 -303 -472 -103 -344 0 -278 -19 0 -84 -63
-31 -56 -26 -51 0 -69 -131 -85 -92 -149 -139 -148 -151 -144 -119 -118 -106 -120 -99 -64 -17 -15 -16 -9 -12 -25 -10 -34 -60 -52 -269 -189 -89 -50 -92 -48 -96 -92 -189 -108 0 0 -333 -276
-63 -80 -84 -79 -84 -139 -155 -125 -117 -106 -146 -145 -138 -166 -142 -218 -223 -71 -81 -78 -32 -26 -9 -13 -27 -26 -21 -25 -24 -55 -259 -232 -241 -204 -63 -34 -40 -41 -45 -27 -71 -105 -137 -191
-72 -142 -148 -119 -99 -115 -77 -91 -115 -45 -151 0 0 0 0 0 -17 -44 -85 -28 -23 -34 -56 -89 -61 -57 -75 -29 -105 -89 -95 -48 -59 -75 -12 -20 -29 -48 -55 -29 -45 -54 -108 -171
-110 -138 -155 -159 -205 -236 -261 0 0 0 0 0 0 0 0 -131 -53 -22 -43 -28 -62 -51 -46 -58 -59 -84 -61 -48 -66 -63 -28 -29 -35 -27 -31 -47 -55 -60 -15 -43 -45 -48 -44 -86
0 0 0 0 -154 -110 -269 -151 0 0 0 0 -32 0 -75 -94 -80 -98 -130 -37 -33 -28 -22 -30 -45 -56 -69 -61 -36 -49 -14 -16 -83 -148 -82 -61 -207 -61 -54 -29 -58 -46 -54 -43
Wind_Speed
nan nan nan nan nan nan nan nan 18 36 41 36 24 25 35 29 17 17 nan nan nan nan nan nan nan 3 10 4 4 2 4 1 1 4 3 5 4 5 4 10 10 12 9 7
nan nan nan nan nan nan 30 34 32 34 44 34 nan 37 39 36 14 17 19 nan nan 11 nan nan nan 7 11 8 5 3 4 0 1 2 4 2 4 4 7 8 8 11 10 9
nan nan nan nan nan nan 24 nan 20 38 26 47 47 nan 18 20 14 25 16 17 nan 12 14 12 11 13 15 13 10 7 3 3 2 0 4 2 2 3 3 5 7 9 7 4
nan nan nan 18 23 nan nan nan nan 33 nan 24 21 32 18 9 0 28 22 13 13 12 15 13 11 11 14 13 10 9 10 7 3 0 3 2 5 7 8 9 7 7 5 4
nan nan nan 13 nan nan nan nan nan nan nan nan 14 22 1 4 14 10 19 4 8 8 15 13 14 12 15 14 13 11 11 10 4 2 2 2 5 5 4 3 6 5 4 6
nan nan nan nan nan nan nan nan nan nan nan nan nan nan 11 20 nan 12 10 18 17 8 15 17 12 11 15 14 13 11 10 9 7 6 6 6 5 4 1 1 2 3 5 7
nan nan nan nan nan nan nan nan nan nan nan nan nan nan nan nan 14 23 22 19 18 9 6 14 12 9 11 13 14 13 13 11 11 12 8 8 8 7 2 2 2 2 3 5
nan nan nan nan nan nan nan nan nan nan nan 25 17 11 19 nan 7 24 nan 27 22 17 4 nan 11 10 13 14 14 16 13 11 12 13 12 10 10 6 2 0 1 1 2 2
nan nan nan nan nan nan nan nan nan nan 12 18 21 14 nan 35 25 nan nan 30 24 26 7 7 5 15 15 16 14 17 15 14 14 14 12 10 9 7 4 1 3 2 3 3
nan nan nan nan nan nan nan nan nan nan 11 nan 10 nan nan 3 18 12 nan 14 14 23 4 10 nan 15 14 19 12 17 17 16 16 17 15 12 9 5 5 3 1 3 3 3
nan nan nan nan nan nan nan nan nan nan nan nan nan nan 13 9 5 16 23 32 17 20 14 10 10 nan 18 15 17 18 16 15 16 15 16 12 7 5 5 4 2 2 1 3
nan nan nan nan nan nan nan nan nan nan 10 23 24 16 15 20 11 9 8 19 16 19 11 13 15 nan 18 17 16 19 18 17 15 14 15 10 7 7 6 2 3 3 3 4
nan nan nan nan nan nan nan nan nan nan 17 16 27 14 12 26 14 20 20 14 12 4 12 7 3 7 13 15 15 21 18 17 14 12 15 13 11 10 8 6 5 7 5 4
nan nan nan nan nan nan nan nan nan nan nan 18 30 nan nan nan 10 7 9 17 19 28 29 24 17 8 25 23 4 15 18 17 19 16 15 17 15 13 13 12 13 13 12 9
nan nan nan nan nan nan nan nan nan nan nan nan 42 38 nan 14 10 4 13 13 22 29 34 34 34 32 37 38 16 25 27 23 20 23 23 16 19 22 22 17 19 21 19 13
nan nan nan nan nan nan nan nan nan nan 24 48 48 41 40 41 33 32 29 20 27 31 32 33 42 40 35 34 31 32 36 34 37 31 27 19 19 20 25 26 25 25 25 24
nan nan nan nan nan nan nan 10 24 nan 34 41 46 46 43 42 41 40 32 26 26 31 29 34 34 30 29 30 35 37 34 48 44 37 36 30 24 19 21 24 26 23 24 28
nan nan nan nan nan nan nan nan nan nan 31 44 49 48 45 36 32 32 32 29 27 29 30 33 35 34 36 34 39 34 32 39 nan nan 41 43 37 25 26 28 29 30 29 32
nan nan nan nan nan nan nan 32 nan 24 37 37 44 50 51 50 48 32 31 33 33 33 31 33 36 35 34 37 38 43 43 45 41 nan 40 39 36 28 23 28 33 26 29 33
nan nan nan nan nan nan 26 33 nan nan 30 32 39 41 40 35 34 26 30 30 31 31 33 35 36 37 36 36 38 42 43 43 nan 35 29 nan 21 30 30 29 30 31 29 34
14 nan nan nan nan 22 26 26 26 nan 28 35 40 36 36 32 29 29 32 31 28 29 32 34 39 38 31 34 38 38 38 36 36 nan nan 30 25 nan nan 28 nan nan 31 43
13 nan 16 16 nan 25 12 13 21 17 25 29 28 28 31 31 32 33 33 30 27 28 28 27 30 37 40 37 40 41 37 33 34 36 32 30 29 32 nan 35 nan nan nan 36
nan nan 15 17 15 11 13 17 16 23 23 22 25 26 28 nan nan 29 27 26 30 30 29 28 34 40 34 39 41 39 34 34 32 32 29 28 27 29 32 34 38 43 43 43
15 14 nan nan 14 17 nan nan nan nan nan nan nan nan nan nan nan 28 29 26 31 30 28 26 25 27 30 28 30 32 26 27 26 22 23 22 24 26 32 36 33 38 39 38
nan 16 19 nan nan nan nan nan nan nan nan nan nan nan nan 28 24 29 25 22 18 19 22 22 21 21 25 30 28 29 29 23 14 15 17 16 20 23 33 32 29 32 39 39
nan nan nan nan 23 23 nan nan nan nan nan nan nan nan 25 24 23 23 nan 15 16 21 18 14 19 23 24 26 28 27 29 25 18 12 18 17 nan 22 29 29 29 33 35 33
Wind_Direction
nan nan nan nan nan nan nan nan 51 312 333 326 154 128 106 97 27 33 nan nan nan nan nan nan nan 312 314 288 225 160 227 51 328 115 122 108 70 17 30 349 23 17 9 357
nan nan nan nan nan nan 77 96 276 319 337 310 nan 92 90 72 19 31 32 nan nan 9 nan nan nan 325 324 320 298 262 261 65 327 151 122 116 38 14 5 7 13 4 350 2
nan nan nan nan nan nan 43 nan 274 313 346 300 329 nan 78 50 283 278 68 7 nan 13 345 352 15 337 326 328 332 305 281 289 286 213 139 94 295 313 8 7 15 13 12 30
nan nan nan 105 107 nan nan nan nan 296 nan 301 337 2 349 54 318 337 60 17 347 25 0 359 7 346 326 332 324 310 304 292 294 300 188 12 358 4 19 5 21 31 31 1
nan nan nan 7 nan nan nan nan nan nan nan nan 299 332 340 199 180 184 163 236 332 0 15 6 3 351 340 328 325 319 303 315 313 323 28 4 354 16 53 21 329 13 14 32
nan nan nan nan nan nan nan nan nan nan nan nan nan nan 297 289 nan 150 161 192 145 339 359 11 14 3 343 337 324 324 318 335 329 335 348 8 360 18 235 214 340 8 40 47
nan nan nan nan nan nan nan nan nan nan nan nan nan nan nan nan 238 186 123 156 143 91 4 6 32 3 350 350 339 341 343 341 336 338 335 345 354 344 8 343 295 337 59 65
nan nan nan nan nan nan nan nan nan nan nan 320 318 331 2 nan 263 95 nan 108 114 97 344 nan 36 20 0 1 354 346 347 340 334 319 341 327 339 315 307 324 277 40 71 48
nan nan nan nan nan nan nan nan nan nan 281 304 336 340 nan 310 340 nan nan 93 95 69 43 349 354 13 343 351 3 343 341 331 325 331 303 317 318 325 290 140 154 165 163 358
nan nan nan nan nan nan nan nan nan nan 323 nan 334 nan nan 42 8 341 nan 150 112 150 74 10 nan 343 339 352 336 336 336 332 328 315 310 304 319 304 262 228 107 90 299 310
nan nan nan nan nan nan nan nan nan nan nan nan nan nan 167 128 258 323 329 317 84 91 130 43 360 nan 332 328 336 337 326 317 310 309 312 303 299 308 257 222 184 119 280 299
nan nan nan nan nan nan nan nan nan nan 283 298 313 287 184 208 291 275 309 351 34 50 48 67 7 nan 334 339 334 339 335 325 322 318 306 310 309 292 290 268 197 208 278 243
nan nan nan nan nan nan nan nan nan nan 277 310 307 299 268 193 163 329 335 4 17 82 54 73 335 266 316 330 334 332 345 333 316 304 300 296 288 292 298 292 264 246 262 288
nan nan nan nan nan nan nan nan nan nan nan 290 308 nan nan nan 326 189 271 305 309 278 268 261 289 343 266 242 185 330 311 319 313 297 288 290 288 288 286 284 276 279 268 267
nan nan nan nan nan nan nan nan nan nan nan nan 313 322 nan 311 285 283 256 252 254 256 258 260 259 261 268 281 303 281 279 264 266 296 296 274 284 279 271 269 272 273 273 281
nan nan nan nan nan nan nan nan nan nan 264 274 292 286 295 300 301 305 301 268 259 259 252 251 258 261 263 268 271 267 270 266 266 254 247 275 282 273 276 274 265 273 273 268
nan nan nan nan nan nan nan 236 216 nan 247 284 282 288 285 286 286 283 283 275 274 274 268 255 253 257 259 254 267 265 270 260 236 262 261 248 228 252 265 273 272 263 272 282
nan nan nan nan nan nan nan nan nan nan 244 268 276 284 291 299 300 292 294 287 280 277 275 271 270 260 259 259 269 271 266 271 nan nan 303 270 268 248 252 257 265 265 260 254
nan nan nan nan nan nan nan 228 nan 227 240 263 275 284 287 290 296 297 286 289 287 284 283 279 279 281 274 271 270 272 272 276 282 nan 296 297 296 250 259 254 259 260 265 270
nan nan nan nan nan nan 234 235 nan nan 267 258 267 278 283 283 290 300 290 287 287 288 283 286 285 284 282 283 278 273 274 278 nan 289 283 nan 299 284 296 295 294 275 278 278
232 nan nan nan nan 249 241 239 231 nan 280 271 276 275 274 283 301 304 293 288 293 287 288 288 290 292 286 287 286 282 282 284 286 nan nan 286 294 nan nan 292 nan nan 285 281
241 nan 222 219 nan 245 237 264 265 285 268 271 281 284 287 296 298 298 296 300 300 295 293 293 291 287 292 287 281 283 283 279 277 278 282 283 284 288 nan 292 nan nan nan 271
nan nan 265 266 299 295 269 283 267 255 276 281 278 286 300 nan nan 306 312 308 303 297 285 282 282 289 291 289 291 290 288 288 285 282 286 292 296 290 290 288 287 281 276 273
236 238 nan nan 286 281 nan nan nan nan nan nan nan nan nan nan nan 281 279 287 292 298 294 294 289 295 304 301 303 307 308 306 295 285 288 285 281 282 281 278 276 276 270 265
nan 258 263 nan nan nan nan nan nan nan nan nan nan nan nan 292 291 286 285 282 284 299 297 293 292 295 300 310 308 307 304 309 308 285 288 271 266 273 272 272 276 267 262 258
nan nan nan nan 286 288 nan nan nan nan nan nan nan nan 280 293 291 292 nan 281 287 296 302 293 301 310 312 315 311 305 303 305 301 299 274 276 nan 273 267 275 283 256 245 240